User: anonymous   Login
Location: Unspecified
(0.0000°N, 0.0000°E)
Time: 09:50:23
(UTC+02:00)
Language:

Resurs 01 Rocket - Orbit

View from above orbital plane
View from above orbital plane
View from above satellite
View from above satellite

Ground track
Ground track

The orbit data is extracted from the following two-line orbital elements,

1 23343U 94074B   15245.91857987 +.00000079 +00000-0 +19106-4 0  9997
2 23343 098.2175 262.7525 0007197 016.8151 049.0161 14.76564450120213
Epoch (UTC): 02 September 2015 22:02:45
Eccentricity: 0.0007197
inclination: 98.2175°
perigee height: 635 km
apogee height: 645 km
right ascension of ascending node: 262.7525°
argument of perigee: 16.8151°
revolutions per day: 14.76564450
mean anomaly at epoch: 49.0161°
orbit number at epoch: 12021

The dashed part of the orbit path shows where the satellite is in the earth's shadow,  

DLR